Location: Góry Miechowskie
(50.3599°N, 20.1803°E)
Time: 06:19:22
(UTC+00:00)

A-11 Canister half - Pass Details

Date: 17 September 2024
Orbit: 1515 x 1684 km, 47.2° (Epoch: 04 October)

Event Time Altitude Azimuth Distance (km) Brightness Sun altitude
Rises 15:38:45 0° 205° (SSW) 4,757 12.1 10.2°
Reaches altitude 10° 15:42:19 10° 195° (SSW) 3,751 11.4 9.6°
Maximum altitude 15:50:08 31° 138° (SE) 2,463 9.9 8.4°
Drops below altitude 10° 15:57:49 10° 82° (E) 3,686 10.4 7.1°
Sets 16:01:16 0° 72° (ENE) 4,664 10.9 6.6°
